This demonstration page uses our WeatherBlox Daily Observations layout. Learn more.

Left ArrowRight Arrow

53.62937, 11.41316

Hourly Observations for April 8, 2015

Temp ( °F °C ) Dew Point ( °F °C ) Humidity (%) Winds ( mph kmh ) Pressure ( in mb ) Visibility ( mi km ) Precip ( " mm )
6:20 am 06:20 Cloudy 43 6 39 4 87 87 W 9 15 30.39 1029 30 48 N/A
6:50 am 06:50 Cloudy 43 6 41 5 93 93 WNW 8 13 30.39 1029 30 48 N/A
7:20 am 07:20 Cloudy 43 6 41 5 93 93 WNW 10 17 30.39 1029 30 48 N/A
7:50 am 07:50 Cloudy 43 6 41 5 93 93 WNW 8 13 30.39 1029 4 6 N/A
8:20 am 08:20 Cloudy 43 6 41 5 93 93 W 8 13 30.42 1030 30 48 N/A
8:50 am 08:50 Cloudy 43 6 41 5 93 93 W 10 17 30.42 1030 30 48 N/A
9:20 am 09:20 Cloudy 45 7 43 6 93 93 W 12 19 30.42 1030 30 48 N/A
9:50 am 09:50 Cloudy 45 7 43 6 93 93 W 10 17 30.42 1030 30 48 N/A
10:20 am 10:20 Cloudy 46 8 41 5 82 82 WNW 13 20 30.42 1030 30 48 N/A
10:50 am 10:50 Cloudy 46 8 41 5 82 82 WNW 9 15 30.42 1030 30 48 N/A
11:20 am 11:20 Cloudy 46 8 41 5 82 82 WNW 10 17 30.42 1030 30 48 N/A
11:50 am 11:50 Cloudy 48 9 41 5 76 76 WNW 10 17 30.42 1030 30 48 N/A
12:20 pm 12:20 Cloudy 48 9 41 5 76 76 NW 10 17 30.42 1030 30 48 N/A
12:50 pm 12:50 Cloudy 50 10 41 5 71 71 NW 9 15 30.45 1031 30 48 N/A
1:20 pm 13:20 Cloudy 50 10 43 6 76 76 WNW 9 15 30.45 1031 30 48 N/A
1:50 pm 13:50 Cloudy 52 11 43 6 72 72 NW 9 15 30.45 1031 30 48 N/A
2:20 pm 14:20 Mostly Cloudy 52 11 41 5 67 67 WNW 9 15 30.45 1031 30 48 N/A
2:50 pm 14:50 Partly Cloudy 54 12 41 5 63 63 NW 10 17 30.45 1031 30 48 N/A
3:20 pm 15:20 Mostly Sunny 55 13 41 5 59 59 NW 9 15 30.42 1030 30 48 N/A
3:50 pm 15:50 Mostly Sunny 55 13 41 5 59 59 NW 10 17 30.45 1031 30 48 N/A
4:20 pm 16:20 Mostly Sunny 55 13 41 5 59 59 NW 8 13 30.45 1031 30 48 N/A
4:50 pm 16:50 Mostly Sunny 55 13 41 5 59 59 WNW 8 13 30.42 1030 7 11 N/A
5:20 pm 17:20 Mostly Sunny 57 14 43 6 59 59 NNW 9 15 30.42 1030 7 11 N/A
5:50 pm 17:50 Mostly Sunny 55 13 41 5 59 59 NNW 7 11 30.45 1031 7 11 N/A
6:20 pm 18:20 Mostly Sunny 54 12 41 5 63 63 N 6 9 30.45 1031 7 11 N/A
6:50 pm 18:50 Mostly Sunny 54 12 41 5 63 63 N 6 9 30.45 1031 7 11 N/A

Powered by AerisWeather